Location: Gudip?du
(17.0263°N, 80.8301°E)
Time: 07:45:24
(UTC+00:00)

H-2A R/B - Pass Details

Date: 03 August 2024
Orbit: 731 x 832 km, 98.2° (Epoch: 10 September)

Event Time Altitude Azimuth Distance (km) Brightness Sun altitude
Rises 22:25:40 0° 15° (NNE) 3,170 5.8 -25.4°
Reaches altitude 10° 22:27:56 10° 17° (NNE) 2,257 5.0 -24.9°
Maximum altitude 22:32:53 72° 102° (ESE) 798 2.1 -23.8°
Enters shadow 22:35:05 34° 178° (S) 1,240 2.8 -23.4°
